TimeMST,TemperatureF,Dew PointF,Humidity,Sea Level PressureIn,VisibilityMPH,Wind Direction,Wind SpeedMPH,Gust SpeedMPH,PrecipitationIn,Events,Conditions,WindDirDegrees,DateUTC
12:15 AM,36.9,36.9,100,29.99,5.0,Calm,Calm,-,N/A,,Overcast,0,2013-11-21 07:15:00
12:35 AM,36.9,36.9,100,29.99,10.0,Calm,Calm,-,N/A,,Overcast,0,2013-11-21 07:35:00
12:55 AM,36.5,36.5,100,29.99,2.0,South,3.5,-,N/A,,Overcast,180,2013-11-21 07:55:00
1:15 AM,36.7,36.7,100,29.99,5.0,Calm,Calm,-,N/A,,Overcast,0,2013-11-21 08:15:00
1:35 AM,36.5,36.5,100,29.99,7.0,SSW,3.5,-,N/A,,Mostly Cloudy,210,2013-11-21 08:35:00
1:55 AM,36.5,36.5,100,30.00,10.0,Calm,Calm,-,N/A,,Overcast,0,2013-11-21 08:55:00
2:15 AM,37.2,37.2,100,30.00,10.0,SSW,4.6,-,N/A,,Light Drizzle,200,2013-11-21 09:15:00
2:35 AM,37.6,37.6,100,30.00,10.0,SSW,6.9,-,N/A,,Mostly Cloudy,200,2013-11-21 09:35:00
2:55 AM,37.0,37.0,100,30.01,7.0,South,3.5,-,N/A,,Mostly Cloudy,180,2013-11-21 09:55:00
3:15 AM,36.5,36.5,100,30.00,1.2,SW,4.6,-,N/A,,Overcast,230,2013-11-21 10:15:00
3:35 AM,36.0,36.0,100,30.01,4.0,Calm,Calm,-,N/A,,Overcast,0,2013-11-21 10:35:00
3:55 AM,35.6,35.6,100,30.00,10.0,SSE,4.6,-,N/A,,Scattered Clouds,160,2013-11-21 10:55:00
4:15 AM,35.8,35.8,100,30.01,5.0,Calm,Calm,-,N/A,,Clear,0,2013-11-21 11:15:00
4:35 AM,34.7,34.7,100,30.02,0.2,Calm,Calm,-,N/A,Fog,Fog,0,2013-11-21 11:35:00
4:55 AM,34.2,34.2,100,30.03,0.2,Calm,Calm,-,N/A,Fog,Fog,0,2013-11-21 11:55:00
5:15 AM,34.0,34.0,100,30.03,0.2,NNW,3.5,-,N/A,Fog,Fog,330,2013-11-21 12:15:00
5:35 AM,33.8,33.8,100,30.04,0.2,Calm,Calm,-,N/A,Fog,Fog,0,2013-11-21 12:35:00
5:55 AM,33.4,33.4,100,30.04,0.2,Calm,Calm,-,N/A,Fog,Fog,0,2013-11-21 12:55:00
6:15 AM,33.4,33.4,100,30.04,0.2,North,4.6,-,N/A,Fog,Fog,350,2013-11-21 13:15:00
6:35 AM,34.0,34.0,100,30.04,0.2,North,4.6,-,N/A,Snow,Light Snow,10,2013-11-21 13:35:00
6:55 AM,34.5,34.5,100,30.07,0.2,SE,4.6,-,N/A,Fog,Fog,140,2013-11-21 13:55:00
7:15 AM,34.0,34.0,100,30.07,0.2,Calm,Calm,-,N/A,Fog,Fog,0,2013-11-21 14:15:00
7:35 AM,34.5,34.5,100,30.08,0.2,WSW,3.5,-,N/A,Fog,Fog,250,2013-11-21 14:35:00
7:55 AM,34.3,34.3,100,30.08,0.2,Calm,Calm,-,N/A,Fog,Fog,0,2013-11-21 14:55:00
8:15 AM,34.3,34.3,100,30.08,0.2,Calm,Calm,-,N/A,Fog,Fog,0,2013-11-21 15:15:00
8:35 AM,34.7,34.7,100,30.10,0.2,SSW,3.5,-,N/A,Fog,Fog,210,2013-11-21 15:35:00
8:55 AM,35.2,35.2,100,30.10,0.2,South,3.5,-,N/A,Fog,Fog,180,2013-11-21 15:55:00
9:15 AM,36.5,36.5,100,30.11,0.2,SSE,4.6,-,N/A,Fog,Fog,150,2013-11-21 16:15:00
9:35 AM,36.7,36.7,100,30.11,0.2,SSE,3.5,-,N/A,Fog,Fog,150,2013-11-21 16:35:00
9:55 AM,37.4,37.4,100,30.11,0.5,SE,3.5,-,N/A,Fog,Fog,140,2013-11-21 16:55:00
10:15 AM,38.5,38.5,100,30.11,10.0,SE,4.6,-,N/A,,Overcast,140,2013-11-21 17:15:00
10:35 AM,40.1,40.1,100,30.11,10.0,South,5.8,-,N/A,,Mostly Cloudy,170,2013-11-21 17:35:00
10:55 AM,41.0,41.0,100,30.11,10.0,South,4.6,-,N/A,,Overcast,170,2013-11-21 17:55:00
11:15 AM,41.0,41.0,100,30.12,10.0,South,4.6,-,N/A,,Overcast,180,2013-11-21 18:15:00
11:35 AM,41.4,41.4,100,30.11,10.0,SSE,5.8,-,N/A,,Light Drizzle,160,2013-11-21 18:35:00
11:55 AM,42.1,42.1,100,30.11,10.0,South,4.6,-,N/A,,Light Drizzle,170,2013-11-21 18:55:00
12:15 PM,43.5,42.4,96,30.10,10.0,SSE,5.8,-,N/A,,Overcast,160,2013-11-21 19:15:00
12:35 PM,44.1,40.3,87,30.09,10.0,SSE,9.2,-,N/A,,Overcast,160,2013-11-21 19:35:00
12:55 PM,44.1,39.9,85,30.09,10.0,South,10.4,-,N/A,,Overcast,170,2013-11-21 19:55:00
1:15 PM,44.6,39.6,82,30.09,10.0,SSE,10.4,-,N/A,,Overcast,160,2013-11-21 20:15:00
1:35 PM,43.2,38.7,84,30.10,10.0,South,11.5,-,N/A,,Light Drizzle,180,2013-11-21 20:35:00
1:55 PM,42.8,41.7,96,30.10,7.0,South,8.1,-,N/A,,Drizzle,170,2013-11-21 20:55:00
2:15 PM,43.0,40.8,92,30.10,10.0,South,8.1,-,N/A,Rain,Light Rain,180,2013-11-21 21:15:00
2:35 PM,42.8,42.4,99,30.10,10.0,South,8.1,-,N/A,,Light Drizzle,170,2013-11-21 21:35:00
2:55 PM,42.3,42.1,99,30.11,10.0,South,6.9,-,N/A,,Light Drizzle,180,2013-11-21 21:55:00
3:15 PM,42.3,40.3,93,30.11,10.0,South,6.9,-,N/A,,Mostly Cloudy,180,2013-11-21 22:15:00
3:35 PM,42.3,41.2,96,30.12,7.0,SSW,5.8,-,N/A,,Drizzle,210,2013-11-21 22:35:00
3:55 PM,42.6,41.4,95,30.12,10.0,South,5.8,-,N/A,,Scattered Clouds,180,2013-11-21 22:55:00
4:15 PM,42.8,40.3,91,30.13,10.0,South,8.1,-,N/A,,Mostly Cloudy,190,2013-11-21 23:15:00
4:35 PM,42.8,39.2,87,30.12,10.0,South,5.8,-,N/A,,Mostly Cloudy,180,2013-11-21 23:35:00
4:55 PM,42.4,39.4,89,30.13,10.0,South,5.8,-,N/A,,Scattered Clouds,190,2013-11-21 23:55:00
5:15 PM,42.4,40.1,91,30.14,10.0,South,5.8,-,N/A,,Mostly Cloudy,170,2013-11-22 00:15:00
5:35 PM,42.3,40.8,95,30.15,10.0,South,5.8,-,N/A,,Overcast,170,2013-11-22 00:35:00
5:55 PM,42.1,41.2,97,30.15,10.0,SSE,4.6,-,N/A,,Mostly Cloudy,160,2013-11-22 00:55:00
6:15 PM,41.9,41.5,99,30.16,10.0,SSE,3.5,-,N/A,Rain,Light Rain,160,2013-11-22 01:15:00
6:35 PM,41.4,41.4,100,30.17,10.0,South,4.6,-,N/A,,Overcast,180,2013-11-22 01:35:00
6:55 PM,41.9,41.2,97,30.16,10.0,SSW,3.5,-,N/A,,Mostly Cloudy,200,2013-11-22 01:55:00
7:15 PM,41.9,41.0,97,30.17,10.0,South,5.8,-,N/A,,Overcast,190,2013-11-22 02:15:00
7:35 PM,42.4,40.1,91,30.17,10.0,SW,4.6,-,N/A,,Overcast,220,2013-11-22 02:35:00
7:55 PM,42.4,40.3,92,30.17,10.0,SSW,5.8,-,N/A,,Light Drizzle,210,2013-11-22 02:55:00
8:15 PM,43.7,40.3,88,30.18,7.0,South,12.7,18.4,0.02,Rain,Rain,170,2013-11-22 03:15:00
8:35 PM,42.3,41.9,99,30.19,10.0,South,5.8,-,0.05,Rain,Light Rain,180,2013-11-22 03:35:00
8:55 PM,41.9,41.9,100,30.19,10.0,South,5.8,-,0.07,Rain,Light Rain,170,2013-11-22 03:55:00
9:15 PM,41.2,41.2,100,30.19,7.0,South,5.8,-,0.02,Rain,Light Rain,170,2013-11-22 04:15:00
9:35 PM,40.6,40.6,100,30.18,7.0,South,4.6,-,0.03,,Drizzle,180,2013-11-22 04:35:00
9:55 PM,40.5,40.5,100,30.19,5.0,SSE,9.2,-,0.05,Rain,Light Rain,150,2013-11-22 04:55:00
10:15 PM,39.7,39.7,100,30.20,5.0,South,10.4,17.3,0.03,Rain,Light Rain,170,2013-11-22 05:15:00
10:35 PM,38.8,38.8,100,30.20,5.0,South,8.1,-,0.06,Rain,Light Rain,170,2013-11-22 05:35:00
10:55 PM,37.8,37.8,100,30.20,5.0,South,12.7,-,0.08,Rain,Light Rain,170,2013-11-22 05:55:00
11:15 PM,36.9,36.9,100,30.21,5.0,South,5.8,-,N/A,Rain,Light Rain,180,2013-11-22 06:15:00
11:35 PM,35.6,35.6,100,30.21,5.0,South,9.2,-,0.01,Rain,Light Rain,180,2013-11-22 06:35:00
11:55 PM,34.0,34.0,100,30.21,2.5,South,8.1,-,0.03,Snow,Light Snow,190,2013-11-22 06:55:00